Wind_Speed
33 34 34 35 35 36 36 37 38 38 38 37 37 37 37 37 37 38 37 37 38 38 39 39 39 39 39 40 41 41 41 43 44 46 47 49 51 51 51 51 52 51 51 51
34 34 35 35 35 36 37 37 38 38 37 37 37 37 37 37 37 37 37 37 37 38 39 39 39 39 39 39 40 40 40 41 42 43 45 47 49 50 50 49 50 49 49 49
35 35 36 36 37 37 37 37 37 37 37 37 37 38 38 37 37 37 37 37 37 38 38 39 39 39 40 40 40 40 40 40 41 41 43 45 47 48 48 48 47 47 47 47
37 37 37 38 38 38 38 37 37 37 37 38 38 37 37 37 36 36 37 37 37 38 38 38 39 40 41 41 40 40 40 41 41 41 42 44 45 45 46 46 46 45 45 45
38 38 39 38 38 39 39 37 37 37 38 38 38 37 37 38 37 37 37 38 38 38 38 38 38 39 40 40 40 40 40 39 39 40 40 41 42 43 43 44 44 44 44 44
38 39 40 39 39 39 39 38 38 38 37 38 38 38 37 37 37 37 37 38 38 38 38 38 37 38 38 38 39 39 38 37 38 38 38 38 39 40 41 42 43 43 43 43
38 39 39 39 39 39 38 38 38 37 37 38 38 38 38 37 37 37 37 37 38 38 37 37 37 37 37 37 37 36 35 35 35 36 36 36 36 37 38 39 40 41 41 41
38 39 39 39 39 39 38 38 38 38 38 38 38 38 37 37 37 37 37 38 38 38 37 37 37 36 36 35 34 34 33 33 34 34 34 34 35 35 36 37 37 38 38 39
38 38 39 39 39 39 38 38 38 38 37 38 38 38 38 37 37 38 38 37 37 37 36 36 36 35 34 34 34 33 33 33 32 33 33 33 33 33 34 35 35 36 36 36
38 38 39 39 38 38 38 38 38 38 38 38 38 39 38 38 38 38 37 37 36 36 35 35 34 34 33 32 32 32 32 32 32 32 32 32 32 32 32 33 34 34 35 35
38 38 38 38 38 38 38 38 39 39 39 39 39 39 39 38 38 37 37 36 36 35 34 33 32 32 31 31 31 31 31 31 31 31 31 31 31 31 31 31 32 33 34 35
38 38 37 37 38 38 38 39 39 39 39 39 39 38 38 37 37 36 36 35 35 34 33 32 31 31 30 30 30 30 30 31 31 31 30 31 31 31 31 31 31 31 32 33
38 38 37 37 38 38 38 39 39 38 38 38 38 37 36 36 36 35 35 34 33 32 31 31 30 30 29 28 29 29 30 30 30 30 30 31 31 31 31 31 31 31 31 31
38 38 37 38 38 38 38 38 38 37 37 37 36 36 35 35 35 34 34 33 32 31 30 30 29 29 28 28 28 28 28 28 28 29 29 29 29 30 30 31 31 31 31 31
37 38 37 37 37 38 38 37 36 36 36 36 36 36 35 35 35 34 34 33 32 31 30 29 29 29 29 28 28 27 27 26 27 27 27 27 27 28 28 29 29 30 31 31
37 37 36 36 36 36 36 36 36 36 36 36 35 35 35 35 35 34 34 33 31 30 29 29 29 29 29 29 28 27 26 26 26 25 25 24 25 25 26 27 27 28 29 30
35 35 35 35 36 36 36 36 36 35 35 35 35 35 35 35 35 34 34 33 32 31 30 30 29 29 28 28 27 26 25 25 24 24 23 23 23 23 23 24 25 26 27 28
34 34 34 34 34 34 35 35 35 35 35 35 35 35 35 35 35 34 33 33 32 32 31 30 29 28 27 26 26 25 25 24 23 23 22 22 22 22 21 22 22 23 24 26
33 33 33 33 33 33 34 34 35 35 35 35 35 35 35 35 34 34 33 33 32 31 31 30 28 27 27 26 26 25 24 24 23 22 22 21 20 20 20 20 20 21 22 23
33 33 33 33 33 34 34 35 35 35 35 35 35 35 35 34 34 34 33 33 32 31 30 28 27 27 26 25 25 24 24 23 22 22 21 20 20 19 19 19 20 20 21 22
33 33 33 33 34 34 35 35 35 35 35 35 35 34 34 34 33 33 32 32 32 30 29 28 26 25 25 24 23 23 23 22 21 21 20 19 19 19 18 18 19 19 20 21
33 33 33 34 34 35 35 35 35 35 35 35 34 34 33 33 32 32 32 31 30 29 28 27 26 25 24 23 22 22 22 21 20 20 19 18 18 17 17 17 17 18 19 19
33 33 33 34 34 35 35 35 34 34 34 33 33 33 32 32 31 31 30 29 28 27 26 26 25 24 23 23 22 21 20 19 18 17 17 17 16 16 16 16 16 17 18 19
33 33 33 34 34 34 34 34 34 34 33 33 32 32 32 32 31 31 30 28 27 26 25 25 24 23 22 22 21 20 19 17 16 16 15 15 15 15 16 16 16 16 17 18
32 33 33 34 34 34 34 33 33 33 33 33 32 32 32 31 30 29 28 27 26 25 24 23 22 22 21 20 19 18 18 17 16 15 15 15 15 15 15 15 16 16 16 17
32 33 33 34 34 34 33 33 32 32 32 32 32 32 32 31 30 28 27 26 25 24 23 22 21 20 19 19 18 18 17 16 15 15 14 14 14 15 15 15 16 16 17 17
32 33 33 33 33 33 32 32 32 32 32 32 32 31 30 29 28 27 26 25 23 23 22 21 20 19 19 18 18 17 16 16 15 15 14 14 14 15 15 15 16 16 17 17
Wind_Direction
304 304 305 307 308 307 306 305 304 305 304 305 303 303 302 300 298 296 292 290 289 288 286 283 282 280 277 275 275 275 273 271 268 265 263 261 260 260 260 259 259 258 256 254
304 303 304 305 308 307 306 305 305 304 304 305 304 303 303 302 300 297 294 291 290 289 287 284 282 281 278 277 277 277 275 274 271 268 265 263 261 261 260 260 259 257 256 255
304 304 304 304 307 307 306 306 305 305 305 305 305 305 304 303 302 299 295 292 291 290 289 286 284 282 279 278 279 279 277 276 273 270 267 265 263 262 260 259 258 256 256 255
305 305 305 307 307 307 306 305 305 305 306 306 306 306 305 304 302 300 297 294 292 291 290 287 286 283 281 280 280 280 279 277 275 271 269 267 265 263 260 258 257 257 256 255
306 306 305 306 308 307 307 305 305 305 305 306 306 305 304 304 303 301 299 297 294 292 291 289 287 285 283 281 281 281 279 277 275 273 271 269 266 263 261 259 258 257 256 255
305 306 307 308 307 307 306 305 305 305 305 306 306 306 304 303 303 302 301 300 297 295 293 291 289 287 284 283 282 281 279 277 276 274 272 269 266 264 262 260 258 258 256 255
304 305 306 307 308 308 307 307 306 306 305 306 306 307 306 304 303 303 302 301 299 297 295 293 292 289 286 285 283 281 279 278 276 276 274 270 267 265 262 260 259 257 255 253
304 305 306 307 307 307 306 306 306 306 306 306 306 307 306 305 305 304 303 302 300 299 297 294 292 290 288 285 283 282 280 279 277 275 274 272 269 266 263 260 258 256 254 252
304 304 305 305 306 306 305 305 305 305 306 306 306 306 305 305 305 305 304 303 302 300 298 296 294 291 289 287 284 283 281 280 278 276 275 274 271 268 266 262 258 256 253 251
303 304 304 304 305 305 304 303 304 304 304 305 305 305 305 305 305 305 304 303 302 301 299 298 295 293 291 289 287 285 283 280 278 276 275 273 271 269 267 264 259 255 252 250
304 304 304 304 304 304 304 303 303 303 304 304 304 305 305 305 305 305 305 304 302 300 299 297 296 295 291 290 288 287 284 281 279 276 273 272 270 269 267 264 261 256 253 251
305 305 304 304 304 304 304 304 303 304 304 304 304 304 305 305 305 305 306 305 304 301 299 298 297 296 295 293 290 289 286 283 280 277 273 271 268 266 266 264 260 257 255 252
304 304 304 304 304 304 305 305 305 304 304 304 304 304 304 305 305 306 306 306 305 302 300 299 298 296 296 296 293 291 289 285 281 278 274 271 268 265 262 261 258 255 253 251
304 304 304 304 304 305 306 306 306 305 305 305 305 305 305 305 305 306 306 306 305 303 301 300 299 297 296 296 295 293 291 288 284 280 276 273 269 265 261 258 256 254 252 249
304 304 304 304 304 305 306 307 306 306 306 306 306 306 306 306 305 306 306 306 305 303 301 300 299 298 298 297 295 293 291 290 286 282 277 273 269 265 261 258 256 253 251 247
305 305 305 305 305 306 307 307 307 307 307 306 306 306 306 306 305 305 305 305 304 303 301 300 299 299 298 297 296 295 293 291 289 285 279 273 269 266 262 258 254 252 248 244
306 306 306 306 306 306 307 308 308 308 307 306 306 306 306 306 306 305 304 304 303 302 301 299 298 298 297 296 296 295 294 292 290 287 281 274 271 268 263 257 253 249 247 244
308 308 308 307 307 307 308 309 309 309 309 308 307 306 306 306 306 305 304 303 303 302 301 299 299 297 296 295 295 294 293 291 288 287 283 277 273 270 264 258 252 248 246 242
311 310 310 309 309 309 310 310 311 311 310 309 308 307 307 306 305 305 304 303 302 302 301 299 298 297 296 295 294 293 292 290 287 286 283 278 273 269 264 258 251 249 245 241
312 312 311 310 310 310 311 311 311 311 311 310 309 309 308 307 306 305 304 303 302 302 301 299 298 297 296 295 293 291 291 289 286 284 282 278 272 268 263 258 253 249 245 243
311 312 312 312 311 311 311 311 312 312 311 311 311 310 309 308 307 306 305 304 303 302 300 298 298 297 296 295 293 291 290 289 285 283 280 275 270 267 263 259 254 249 246 244
311 312 313 313 313 312 311 312 312 312 312 312 312 311 310 309 309 308 307 305 303 301 299 297 297 296 295 295 293 292 291 288 285 281 278 273 268 264 261 256 252 248 245 244
310 311 312 313 313 313 312 312 313 313 313 313 312 312 312 311 310 310 309 307 304 302 300 297 296 295 294 294 293 293 291 288 284 280 275 269 264 261 258 254 252 249 246 245
310 311 312 313 313 314 313 313 313 313 314 314 313 313 313 312 311 310 309 307 304 302 300 298 296 295 295 294 292 291 289 287 282 277 272 268 263 259 256 253 251 250 248 246
309 311 312 313 314 314 314 314 314 314 314 314 314 314 314 313 312 311 309 307 305 303 301 298 297 296 295 293 291 289 287 284 280 275 270 267 262 259 256 253 251 250 248 246
310 311 312 313 314 315 315 315 315 315 315 315 315 315 315 314 313 312 311 308 306 303 301 299 297 295 293 292 289 287 285 281 277 273 270 265 260 257 255 252 249 248 247 245
309 311 312 313 314 315 316 316 316 316 315 315 315 316 315 315 314 313 312 310 308 305 303 300 297 295 292 290 288 285 282 278 273 269 267 264 261 257 254 251 249 247 245 244
Height
5638 5633 5629 5624 5620 5614 5609 5604 5599 5595 5589 5584 5578 5573 5568 5563 5559 5554 5551 5547 5544 5541 5538 5534 5532 5529 5527 5525 5524 5522 5521 5519 5518 5518 5518 5519 5520 5521 5522 5523 5525 5527 5529 5532
5630 5625 5620 5616 5611 5606 5600 5595 5589 5584 5580 5575 5569 5564 5559 5554 5549 5545 5540 5537 5533 5530 5526 5523 5521 5518 5516 5514 5512 5510 5509 5507 5505 5505 5505 5505 5505 5506 5507 5509 5511 5512 5514 5517
5621 5616 5611 5607 5603 5597 5591 5586 5581 5575 5572 5565 5560 5554 5549 5544 5540 5535 5530 5526 5523 5519 5516 5512 5509 5507 5504 5502 5500 5498 5496 5494 5493 5492 5491 5491 5492 5493 5494 5495 5496 5498 5500 5503
5610 5607 5602 5600 5593 5587 5582 5576 5571 5566 5561 5555 5550 5545 5540 5535 5530 5525 5521 5516 5512 5508 5505 5501 5498 5495 5493 5490 5488 5486 5484 5482 5480 5479 5478 5478 5478 5479 5480 5482 5483 5485 5487 5489
5601 5596 5592 5589 5583 5577 5571 5567 5562 5556 5551 5546 5541 5536 5531 5525 5520 5515 5511 5506 5502 5497 5494 5490 5487 5483 5481 5479 5476 5474 5471 5469 5467 5466 5466 5465 5465 5466 5467 5469 5470 5472 5474 5476
5591 5585 5581 5579 5573 5566 5562 5557 5552 5546 5541 5536 5531 5526 5522 5516 5511 5506 5501 5496 5491 5487 5483 5479 5475 5472 5470 5467 5464 5462 5460 5458 5456 5454 5454 5453 5453 5454 5454 5456 5457 5459 5461 5463
5581 5575 5572 5568 5562 5556 5553 5549 5542 5536 5531 5526 5521 5516 5512 5506 5501 5496 5491 5486 5481 5476 5472 5468 5464 5461 5458 5456 5453 5450 5448 5446 5445 5443 5442 5442 5442 5442 5442 5443 5445 5447 5449 5451
5572 5567 5565 5557 5552 5548 5543 5537 5531 5526 5522 5517 5512 5506 5501 5496 5491 5486 5481 5476 5471 5466 5462 5457 5454 5451 5448 5445 5442 5440 5438 5436 5434 5433 5432 5431 5431 5430 5431 5431 5433 5434 5436 5439
5563 5560 5553 5547 5542 5537 5532 5527 5522 5517 5512 5507 5502 5497 5492 5487 5482 5477 5471 5466 5461 5456 5452 5447 5443 5440 5437 5435 5432 5430 5427 5425 5424 5422 5421 5420 5420 5420 5420 5420 5421 5423 5425 5427
5553 5548 5543 5537 5532 5527 5522 5517 5512 5507 5503 5497 5492 5487 5482 5477 5472 5467 5462 5456 5451 5447 5442 5438 5434 5430 5427 5424 5422 5420 5417 5415 5414 5412 5411 5410 5410 5409 5409 5409 5410 5412 5414 5416
5543 5538 5533 5528 5522 5517 5512 5507 5502 5498 5493 5487 5482 5477 5472 5467 5462 5457 5452 5447 5442 5437 5433 5428 5424 5421 5418 5415 5413 5410 5408 5406 5404 5403 5402 5401 5400 5399 5399 5400 5400 5401 5403 5405
5534 5529 5523 5519 5513 5508 5503 5497 5492 5488 5483 5477 5472 5467 5462 5457 5452 5447 5442 5437 5432 5428 5424 5420 5416 5412 5409 5406 5403 5401 5399 5396 5394 5393 5392 5391 5390 5390 5389 5389 5390 5391 5392 5394
5523 5518 5513 5508 5503 5498 5493 5488 5483 5478 5473 5468 5463 5458 5453 5448 5443 5438 5433 5429 5424 5419 5415 5411 5407 5404 5400 5398 5395 5392 5389 5387 5384 5383 5382 5380 5380 5379 5380 5380 5380 5381 5382 5384
5513 5508 5504 5498 5494 5488 5483 5478 5473 5468 5463 5458 5453 5448 5443 5439 5434 5429 5425 5420 5415 5411 5406 5403 5399 5395 5392 5389 5386 5383 5380 5377 5375 5373 5371 5370 5369 5369 5369 5370 5371 5371 5373 5374
5503 5498 5494 5489 5484 5479 5474 5469 5464 5459 5454 5449 5444 5439 5434 5430 5425 5420 5416 5411 5407 5402 5398 5395 5391 5387 5384 5381 5378 5375 5372 5369 5366 5364 5362 5361 5360 5359 5359 5359 5360 5362 5363 5365
5493 5488 5483 5479 5474 5469 5464 5459 5454 5450 5445 5440 5435 5430 5425 5421 5416 5411 5407 5402 5398 5394 5390 5386 5383 5379 5376 5373 5369 5366 5363 5360 5358 5355 5353 5352 5351 5350 5350 5350 5351 5352 5354 5356
5484 5479 5474 5470 5465 5460 5455 5450 5445 5440 5436 5431 5426 5421 5416 5412 5407 5402 5398 5393 5389 5385 5382 5378 5374 5371 5367 5364 5361 5358 5355 5353 5350 5348 5346 5344 5343 5342 5342 5342 5343 5344 5345 5347
5475 5470 5465 5460 5456 5451 5446 5441 5436 5431 5427 5422 5417 5412 5407 5403 5398 5393 5389 5385 5381 5377 5373 5369 5365 5362 5359 5356 5353 5350 5347 5345 5343 5341 5339 5337 5336 5335 5334 5335 5335 5337 5338 5340
5466 5461 5456 5451 5447 5442 5437 5433 5428 5423 5418 5413 5408 5403 5398 5393 5389 5384 5380 5376 5372 5368 5364 5360 5357 5354 5351 5348 5345 5342 5340 5337 5335 5333 5331 5330 5329 5328 5328 5328 5329 5330 5332 5333
5457 5452 5448 5443 5438 5434 5429 5424 5419 5414 5409 5404 5399 5394 5389 5384 5380 5375 5371 5366 5362 5359 5355 5352 5348 5345 5343 5340 5337 5334 5332 5330 5328 5326 5324 5323 5322 5322 5322 5322 5323 5324 5326 5328
5449 5444 5439 5435 5430 5425 5420 5415 5410 5405 5400 5395 5390 5385 5380 5375 5371 5366 5362 5358 5353 5350 5346 5343 5340 5337 5335 5332 5329 5327 5325 5322 5320 5319 5317 5317 5316 5316 5316 5317 5317 5319 5320 5322
5440 5436 5431 5426 5421 5416 5411 5406 5401 5396 5391 5386 5381 5376 5372 5367 5362 5357 5353 5349 5345 5341 5338 5335 5332 5329 5327 5324 5322 5320 5317 5315 5313 5312 5311 5310 5310 5310 5310 5311 5312 5313 5314 5316
5432 5427 5422 5418 5413 5408 5403 5398 5392 5387 5382 5377 5373 5368 5363 5358 5354 5349 5345 5340 5336 5333 5330 5327 5324 5321 5319 5317 5314 5312 5310 5309 5307 5306 5305 5304 5304 5305 5305 5306 5307 5308 5309 5310
5423 5419 5414 5409 5404 5399 5394 5389 5384 5379 5374 5369 5364 5359 5355 5350 5345 5341 5336 5332 5328 5325 5322 5319 5316 5314 5311 5309 5307 5305 5304 5302 5301 5300 5299 5299 5299 5299 5300 5301 5302 5303 5304 5305
5415 5410 5405 5401 5396 5391 5386 5381 5376 5371 5366 5361 5356 5351 5346 5342 5337 5333 5328 5325 5321 5317 5314 5311 5309 5306 5304 5302 5300 5299 5297 5296 5295 5295 5294 5294 5294 5294 5295 5296 5296 5297 5298 5300
5406 5402 5397 5392 5387 5382 5377 5372 5367 5363 5358 5353 5348 5343 5338 5334 5329 5325 5321 5317 5313 5310 5307 5304 5302 5299 5297 5295 5294 5292 5291 5290 5289 5289 5289 5289 5289 5289 5290 5290 5291 5292 5293 5294
5398 5393 5388 5383 5378 5374 5369 5364 5359 5355 5350 5345 5340 5335 5330 5326 5322 5317 5313 5310 5306 5303 5300 5297 5295 5293 5291 5289 5287 5286 5285 5284 5284 5283 5283 5283 5284 5284 5284 5285 5286 5287 5288 5289